TimePDT,TemperatureF,Dew PointF,Humidity,Sea Level PressureIn,VisibilityMPH,Wind Direction,Wind SpeedMPH,Gust SpeedMPH,PrecipitationIn,Events,Conditions,WindDirDegrees,DateUTC
12:54 AM,64.0,46.9,54,30.03,10.0,North,10.4,-,N/A,,Overcast,10,2013-03-31 07:54:00
1:54 AM,64.0,46.9,54,30.03,10.0,North,13.8,-,N/A,,Overcast,360,2013-03-31 08:54:00
2:54 AM,63.0,48.9,60,30.04,10.0,North,15.0,-,N/A,,Overcast,360,2013-03-31 09:54:00
3:54 AM,62.1,50.0,65,30.03,10.0,North,11.5,-,N/A,,Overcast,360,2013-03-31 10:54:00
4:54 AM,61.0,52.0,72,30.04,10.0,North,12.7,-,0.00,,Overcast,350,2013-03-31 11:54:00
5:54 AM,60.1,52.0,75,30.04,10.0,NNE,9.2,-,N/A,,Clear,20,2013-03-31 12:54:00
6:54 AM,60.1,51.1,72,30.06,10.0,NNE,10.4,-,N/A,,Scattered Clouds,20,2013-03-31 13:54:00
7:54 AM,61.0,51.1,70,30.06,10.0,North,9.2,-,N/A,,Mostly Cloudy,10,2013-03-31 14:54:00
8:54 AM,64.9,50.0,58,30.06,10.0,NNE,8.1,-,N/A,,Overcast,20,2013-03-31 15:54:00
9:54 AM,66.9,48.0,51,30.08,10.0,Calm,Calm,-,N/A,,Scattered Clouds,0,2013-03-31 16:54:00
10:54 AM,70.0,48.9,47,30.07,10.0,NW,12.7,-,N/A,,Overcast,310,2013-03-31 17:54:00
11:54 AM,70.0,48.0,46,30.06,10.0,NW,12.7,17.3,N/A,,Mostly Cloudy,320,2013-03-31 18:54:00
12:54 PM,73.0,50.0,44,30.04,10.0,NW,15.0,23.0,N/A,,Scattered Clouds,310,2013-03-31 19:54:00
1:54 PM,71.1,46.9,42,30.03,10.0,WNW,13.8,-,0.00,,Overcast,290,2013-03-31 20:54:00
2:54 PM,70.0,45.0,41,30.01,10.0,WNW,11.5,-,N/A,,Overcast,290,2013-03-31 21:54:00
3:54 PM,68.0,48.9,50,30.00,8.0,West,8.1,-,0.00,Rain,Light Rain,270,2013-03-31 22:54:00
4:54 PM,66.2,51.8,60,30.01,10.0,SW,6.9,-,N/A,,Overcast,230,2013-03-31 23:54:00
5:54 PM,61.0,54.0,78,30.01,8.0,West,6.9,-,0.02,Rain,Light Rain,260,2013-04-01 00:54:00
6:54 PM,62.6,55.4,77,30.01,10.0,SE,5.8,-,N/A,,Overcast,130,2013-04-01 01:54:00
7:54 PM,60.8,55.4,82,30.01,10.0,East,6.9,-,N/A,,Overcast,90,2013-04-01 02:54:00
8:54 PM,61.0,55.0,81,30.03,10.0,SE,3.5,-,N/A,,Overcast,140,2013-04-01 03:54:00
9:54 PM,60.8,55.4,82,30.06,10.0,Calm,Calm,-,N/A,,Mostly Cloudy,0,2013-04-01 04:54:00
10:54 PM,55.9,53.1,90,30.06,10.0,North,5.8,-,N/A,,Clear,360,2013-04-01 05:54:00
11:54 PM,55.9,50.0,80,30.07,10.0,North,9.2,-,N/A,,Mostly Cloudy,10,2013-04-01 06:54:00